Location: Boussy-Saint-Antoine
(48.6830°N, 2.5330°E)
Time: 14:30:46
(UTC+02:00)

N. Korean satellite - Visible Passes

Search period start: 17 October 2019 00:00
Search period end: 27 October 2019 00:00
Orbit: 455 x 508 km, 97.2° (Epoch: 16 October)

Date Brightness Start Highest point End Pass type
(mag) Time Alt. Az. Time Alt. Az. Time Alt. Az.
18 Oct 7.4 07:38:52 10° NNE 07:42:25 56° E 07:45:59 10° S visible
18 Oct 9.9 19:52:42 10° SW 19:54:57 16° W 19:57:14 10° NW visible
19 Oct 9.0 07:13:51 10° NE 07:17:02 28° E 07:20:13 10° SSE visible
19 Oct 8.7 19:26:23 10° SSW 19:29:28 31° W 19:32:36 10° NNW visible
20 Oct 10.0 06:49:19 10° NE 06:51:33 16° E 06:53:49 10° SE visible
21 Oct 10.5 20:11:54 10° W 20:12:36 10° W 20:13:18 10° WNW visible
22 Oct 7.9 07:31:05 10° NNE 07:34:35 46° E 07:38:07 10° S visible
22 Oct 9.6 19:44:27 10° SW 19:47:03 20° W 19:49:41 10° NW visible
23 Oct 9.3 07:06:09 10° NE 07:09:11 24° E 07:12:12 10° SSE visible
23 Oct 8.2 19:18:21 10° SSW 19:21:35 38° W 19:24:53 10° NNW visible
24 Oct 10.2 06:41:51 10° ENE 06:43:40 13° E 06:45:28 10° ESE visible
25 Oct 6.9 07:48:25 10° NNE 07:52:05 76° ESE 07:55:46 10° S visible
25 Oct 10.1 20:02:59 10° WSW 20:04:39 13° W 20:06:21 10° WNW visible
26 Oct 8.4 07:23:16 10° NNE 07:26:43 37° E 07:30:10 10° SSE visible
26 Oct 9.2 19:36:15 10° SSW 19:39:07 24° W 19:42:02 10° NW visible
